Tracking 22879 objects as of 21-Apr-2021
HD Live streaming from Space Station
objects crossing your sky now

COSMOS 1503

Track COSMOS 1503 now!
10-day predictions
COSMOS 1503 is classified as:


NORAD ID: 14401
Int'l Code: 1983-103A
Perigee: 781.8 km
Apogee: 800.9 km
Inclination: 74.0 °
Period: 100.5 minutes
Semi major axis: 7162 km
RCS: 2.2071 m2 (large)
Launch date: October 12, 1983
Source: Commonwealth of Independent States (former USSR) (CIS)
Launch site: PLESETSK MISSILE AND SPACE COMPLEX (PKMTR)
aabbcc
Your satellite tracking list
Your tracking list is empty




NASA's NSSDC Master Catalog

Two Line Element Set (TLE):
1 14401U 83103A   21110.90701199  .00000034  00000-0  22337-4 0  9994
2 14401  74.0430 310.1439 0013335 176.2800 183.8452 14.32242154959822
Source of the keplerian elements: AFSPC